Карьеполье

Россия / Архангельская область     65°32′22″N   43°41′07″E
темп.,
°C
ветер,
м/с
пор.,
м/с
влажн.,
%
обл.,
%
осадки,
мм/ч
давл.,
гПа
погр.,
м
9 мая, вс
вс900:00+7юв41369100 0.0 1011378
03:00+6юв41377100 0.0 1010416
06:00+7юв41282100 0.3 1009844
09:00+9вюв31082100 1.1 1007591
12:00+10юв3773100 0.3 1006952
15:00+8ююв2694100 1.4 1006505
18:00+8юз4889100 0.3 1007598
21:00+5з4881100 0.3 1011752
10 мая, пн
пн1000:00+3зюз3982100 0.0 1013426
03:00+1юз3108732 0.0 1015310
06:00+4зюз310745 0.0 1017433
09:00+9зюз59443 0.0 10191498
12:00+12зюз593399 0.0 10202769
15:00+13зюз5730100 0.0 10212541
18:00+13ююз493587 0.0 10212327
21:00+10ююз41146100 0.0 1021491
11 мая, вт
вт1100:00+9ю41152100 0.0 1020718
03:00+8ююз4872100 0.0 10191073
06:00+8юз3886100 0.0 1020682
09:00+9юз3687100 0.1 1021741
12:00+10юз2478100 0.1 1022741
15:00+12юз3475100 0.1 1023839
18:00+10ю389296 0.4 1022494
21:00+11ююз41294100 0.6 1022544
12 мая, ср
ср1200:00+12ююз31297100 0.1 1021456
03:00+13юз41294100 0.1 1021447
06:00+14зюз41284100 0.0 1022533
09:00+15з4976100 0.0 1023664
12:00+16зсз4775100 0.0 1025763
15:00+17сз357398 0.0 1025753
18:00+17ссв22745 0.0 1025365
21:00+12св22915 0.0 102522
13 мая, чт
чт1300:00+10вюв229661 0.0 102528
03:00+10ююв229666 0.0 102518
06:00+15ююз137213 0.0 1024140
09:00+21ююз24495 0.0 1023736
12:00+24юз46355 0.0 10221781
15:00+25зюз463517 0.0 10212290
18:00+24з254298 0.0 10191089
21:00+19сз115899 0.0 101813